Regional Weather Roundup
Issued by NWS Upton, NY

Current Version | Previous Version | Graphics & Text | Print | Product List | Glossary Off
Versions: 1 2 3 4 5 6 7 8 9 10 11 12 13 14 15 16 17 18 19 20 21 22 23 24 25 26 27 28 29 30 31 32 33 34 35 36 37 38 39 40 41 42 43 44 45 46 47 48 49 50

000
ASUS41 KOKX 181905
RWROKX

Regional Weather Roundup
National Weather Service New York NY
200 PM EST SUN FEB 18 2018

Note: "FAIR" indicates few or no clouds below 12,000 feet with no
significant weather and/or obstructions to visibility.

NYZ071-072-176-178-NJZ106-104-182000-
New York City Metro Area

CITY           SKY/WX    TMP DP  RH WIND       PRES   REMARKS
Central Park   FAIR      44  23  43 NW8G16    30.37R
Bronx Bot Gard   N/A     45  23  42 W14       30.36R
Bronx Lehman C   N/A     43  23  45 W5          N/A
LaGuardia Arpt FAIR      45  22  40 W9        30.34S
Queens College   N/A     43  25  49 NW10        N/A
Kennedy Intl   FAIR      43  25  49 W12       30.36R
Breezy Point     N/A     43 N/A N/A NW12G18     N/A
Brooklyn Coll    N/A     43  23  45 NW13        N/A
Staten Island    N/A     43  25  49 W8          N/A
Newark/Liberty FAIR      45  25  45 W16       30.36R
Teterboro      FAIR      43  25  49 NW14G23   30.34R
$$

NYZ177-179-078>081-182000-
Long Island New York

CITY           SKY/WX    TMP DP  RH WIND       PRES   REMARKS
Jones Beach      N/A     43 N/A N/A NW10G16     N/A
Wantagh          N/A     43  25  49 W10         N/A
Hempstead      NOT AVBL
Matinecock Pt    N/A     43 N/A N/A W9          N/A
Farmingdale    FAIR      43  23  45 NW12      30.34R
MacArthur/ISP  FAIR      44  23  43 NW13      30.32R
Shirley        FAIR      44  24  45 NW15      30.33R
Mt Sinai Harb    N/A    N/A N/A N/A W5          N/A
Westhampton    FAIR      44  22  41 NW14G20   30.33S
East Hampton   FAIR      42  23  47 W9G20     30.31S
Southold         N/A     43  30  61 W6          N/A
Montauk          N/A     44  27  51 W9        30.31R
$$

NYZ052-065-067-182000-
Hudson Valley

CITY           SKY/WX    TMP DP  RH WIND       PRES   REMARKS
White Plains   FAIR      41  21  44 NW14      30.31R
Larchmont Harb   N/A     41 N/A N/A W13         N/A
Croton On Huds   N/A     41 N/A N/A W12         N/A
Somers           N/A     41  21  45 W6          N/A
Brewster         N/A     41  21  45 NW6         N/A
Newburgh       MOSUNNY   41  25  52 NW17G23   30.33R
Montgomery     FAIR      41  22  46 NW12      30.31R
Otisville        N/A     37  23  56 NW5         N/A  WCI  34
Warwick          N/A     39  23  52 NW12        N/A  WCI  32
Suffern          N/A     39  23  52 W9          N/A  WCI  33
Poughkeepsie   FAIR      43  20  39 NW6       30.31R
Albany         CLOUDY    37  25  61 W14       30.33R WCI  28
$$

NJZ001-105-106-008-010-013-015-019>022-104-182000-
New Jersey

CITY           SKY/WX    TMP DP  RH WIND       PRES   REMARKS
Newark/Liberty FAIR      45  25  45 W16       30.36R
Teterboro      FAIR      43  25  49 NW14G23   30.34R
Caldwell       FAIR      42  22  44 NW5       30.36R
Somerville     FAIR      44  24  45 VRB6      30.34R
Linden         FAIR      44  24  45 N9        30.36R
Perth Amboy      N/A     41 N/A N/A W15         N/A
Sussex         FAIR      40  22  48 N10       30.34S WCI  33
Andover          N/A     41  22  46 VRB6      30.34R
Trenton        FAIR      43  24  47 W10G21    30.37S
Millville      FAIR      45  29  53 W13G23    30.39S
Atlantic City  FAIR      48  30  49 W13G21    30.37R
Wrightstown    FAIR      44  27  50 NW10      30.35
Toms River     FAIR      45  27  49 NW12      30.38R
Belmar         FAIR      44  26  49 W14       30.37R
$$

PAZ047>061-062-071-182000-
Eastern Pennsylvania

CITY           SKY/WX    TMP DP  RH WIND       PRES   REMARKS
Philadelphia   FAIR      44  24  45 NW9       30.39S
Allentown      FAIR      41  23  48 W8        30.36S
Scranton       FAIR      38  23  55 NE7       30.33S WCI  33
$$

CTZ002-004>006-009-010-012-RIZ004-006-007-MAZ004-011-015-182000-
Southern New England

 In CT

CITY           SKY/WX    TMP DP  RH WIND       PRES   REMARKS
Bradley Intl   FAIR      40  23  50 NW17G33   30.31R WCI  31
Hartford       PTSUNNY   41  23  48 N13       30.32R
Danbury        FAIR      42  20  41 NW7       30.32R
Wtrbury/Oxford FAIR      38  21  50 NW9G16    30.31R WCI  31
Norwalk Harbor   N/A     41 N/A N/A W6          N/A
Bridgeport     FAIR      44  23  43 NW12      30.32S
Meriden        FAIR      42  22  44 N12       30.31R
New Haven      FAIR      44  22  41 N9        30.32R
Chester        FAIR      43  21  42 NW17G25   30.29S
Groton         FAIR      44  24  45 NW10      30.29R
Willimantic    FAIR      42  22  44 W15       30.30R

 In RI

CITY           SKY/WX    TMP DP  RH WIND       PRES   REMARKS
Providence     FAIR      44  24  45 NW8       30.28R
Block Island   FAIR      42  25  50 W13       30.30R
Westerly       FAIR      46  24  42 VRB6      30.29R

In MA

CITY           SKY/WX    TMP DP  RH WIND       PRES   REMARKS
Boston         FAIR      41  25  53 NW16G23   30.26R
Worcester      FAIR      38  20  48 W20G25    30.23R WCI  28
Westfield      FAIR      39  24  55 W20G28    30.30R WCI  29
Provincetown   FAIR      41  27  57 NW17G24   30.25R
Nantucket      FAIR      41  29  62 NW20G25   30.26R
$$

ANZ330-335-338-340-345-350-353-355-182000-
Coastal Marine Observations


STATION/POSITION TIME  SKY/WX   TEMP    WIND        PRES    VSBY  WAVE
                                AIR SEA DIR/SP/G                  HT/PER
                 (UTC)          (F)     (DEG/KT/KT) (MB)    (MI)  (FT/S)
NY Harb Entrance 1850            41 40  290/ 12/ 14 1027.6          2/ 8
20 S Fire Island 1850            40 42  300/ 12/ 16 1027.7          3/ 8
15 E Barnegat Li 1830               41                N/A           3/ 8
Hudson Canyon    1850            40 47  330/ 17/ 19 1027.1          6/ 6
Kings Point      1836            40 36  350/ 10/ 12 1028.1
Execution Rocks  NOT AVBL
Western LI Sound NOT AVBL
Central LI Sound 1845            39     270/  8/ 10   N/A           2
Robbins Reef     1848            42     280/ 10/ 14 1028.4
$$


>>>>>>>>>>>>>>>>>>>>>>>>>>>> KEY <<<<<<<<<<<<<<<<<<<<<<<<<<<
>                                                          <
>     SKY/WX - Sky Condition/Present Weather               <
>     TMP    - Temperature in Fahrenheit                   <
>     DP     - Dew Point in Fahrenheit                     <
>     RH     - Relative Humidity in Percent                <
>     WIND   - Direction (from) and Speed in MPH           <
>     PRES   - Mean Sea Level Pressure (inches of Hg)      <
>     WCI    - Wind Chill Index                            <
>     VSB    - Visibility in Miles                         <
>     HX     - Heat Index                                  <
>     TC     - Temperature in Celsius                      <
>     VRB    - Varibale Wind Direction                     <
>                                                          <
>>>>>>>>>>>>>>>>>>>>>>>>>>>> KEY <<<<<<<<<<<<<<<<<<<<<<<<<<<



USA.gov is the U.S. government's official web portal to all federal, state and local government web resources and services.